DW6352 Weather Reports


time (UTC)temp
C
wind
direction
speed
KPH
gust
KPH
rain 1hr
cm
rain 24hr
cm
rain mn
cm
humidity
%
barometer
mb
20260506143014 2 262 11.3 20.9 0.00 0.00 0.00 59 1016.3
20260506141511 2 296 11.3 19.3 0.00 0.00 0.00 60 1016.3
20260506140008 2 281 6.4 24.1 0.00 0.00 0.00 60 1016.1
20260506134506 2 300 11.3 20.9 0.00 0.00 0.00 60 1015.8
20260506133003 2 288 14.5 20.9 0.00 0.00 0.00 61 1015.7
20260506131600 2 311 8.0 22.5 0.00 0.00 0.00 61 1015.6
20260506130138 2 295 6.4 17.7 0.00 0.00 0.00 62 1015.5
20260506124555 2 285 8.0 17.7 0.00 0.00 0.00 63 1015.5
20260506123051 2 247 8.0 17.7 0.00 0.00 0.00 62 1015.4
20260506121553 2 305 9.7 19.3 0.00 0.00 0.00 62 1015.1
20260506120045 2 297 8.0 17.7 0.00 0.00 0.00 62 1015.0
20260506114543 2 257 4.8 12.9 0.00 0.00 0.00 62 1014.9
20260506113049 2 297 4.8 12.9 0.00 0.00 0.00 62 1014.8
20260506111538 2 311 4.8 11.3 0.00 0.00 0.00 62 1014.8
20260506110041 2 269 4.8 11.3 0.00 0.00 0.00 62 1014.6
20260506104533 2 281 3.2 9.7 0.00 0.00 0.00 61 1014.3
20260506103033 2 274 4.8 11.3 0.00 0.00 0.00 61 1014.2
20260506101535 2 293 4.8 14.5 0.00 0.00 0.00 60 1014.2
20260506100036 2 263 3.2 9.7 0.00 0.00 0.00 60 1014.2
20260506094532 2 302 4.8 12.9 0.00 0.00 0.00 60 1014.3
20260506093034 2 292 4.8 14.5 0.00 0.00 0.00 60 1014.2
20260506091528 2 303 8.0 16.1 0.00 0.00 0.00 60 1014.0
20260506090036 2 303 8.0 14.5 0.00 0.00 0.00 61 1013.9
20260506084532 2 317 6.4 17.7 0.00 0.00 0.00 62 1013.9
20260506083030 2 306 6.4 14.5 0.00 0.00 0.00 63 1014.0
20260506081522 1 277 9.7 17.7 0.00 0.00 0.00 64 1013.8
20260506073020 1 302 3.2 9.7 0.00 0.00 0.00 66 1013.7
20260506071519 0 296 3.2 9.7 0.00 0.00 0.00 67 1013.7
20260506061511 0 321 0.0 6.4 0.00 0.00 0.00 65 1013.7
20260506044556 2 321 1.6 9.7 0.00 0.00 0.00 61 1013.5
20260506043057 2 343 3.2 8.0 0.00 0.00 0.00 61 1013.4
20260506041551 2 351 3.2 14.5 0.00 0.00 0.00 60 1013.2
20260506040051 2 327 4.8 14.5 0.00 0.00 0.00 60 1013.2
20260506034609 3 330 4.8 16.1 0.00 0.00 0.00 60 1012.9
20260506033049 3 321 6.4 16.1 0.00 0.00 0.00 59 1012.9
20260506031552 3 351 4.8 9.7 0.00 0.00 0.00 58 1012.9
20260506030047 3 16 3.2 14.5 0.00 0.00 0.00 57 1012.8
20260506024551 4 347 8.0 17.7 0.00 0.00 0.00 55 1012.7
20260506023054 4 351 8.0 19.3 0.00 0.00 0.00 54 1012.5
20260506021543 5 329 11.3 19.3 0.00 0.00 0.00 53 1012.4
20260506020041 5 338 12.9 27.4 0.00 0.00 0.00 50 1012.1
20260506014538 5 292 11.3 22.5 0.00 0.00 0.00 47 1011.8
20260506013038 5 300 12.9 27.4 0.00 0.00 0.00 47 1011.6
20260506011542 6 342 20.9 27.4 0.00 0.00 0.00 47 1011.4
20260506010050 6 283 14.5 24.1 0.00 0.00 0.00 47 1011.2
20260506004532 6 300 12.9 29.0 0.00 0.00 0.00 46 1011.1
20260506003032 6 320 11.3 25.7 0.00 0.00 0.00 46 1010.9
20260506001531 6 300 14.5 37.0 0.00 0.00 0.00 45 1010.9
20260506000028 7 318 17.7 27.4 0.00 0.00 0.00 44 1010.6
20260505234527 7 290 20.9 33.8 0.00 0.00 0.00 43 1010.5
20260505233026 8 325 17.7 30.6 0.00 0.00 0.00 42 1010.3
20260505231526 8 325 11.3 27.4 0.00 0.00 0.00 43 1010.2
20260505230037 8 266 14.5 22.5 0.00 0.00 0.00 43 1010.2
20260505224526 8 317 16.1 35.4 0.00 0.00 0.00 41 1010.1
20260505223028 8 250 17.7 30.6 0.00 0.00 0.00 41 1009.9
20260505221525 8 252 14.5 29.0 0.00 0.00 0.00 42 1010.0
20260505220027 8 307 11.3 29.0 0.00 0.00 0.00 41 1010.0
20260505214524 8 304 14.5 29.0 0.00 0.00 0.00 39 1010.0
20260505213027 8 246 16.1 32.2 0.00 0.00 0.00 42 1010.0
20260505211523 8 286 12.9 27.4 0.00 0.00 0.00 41 1010.0
20260505210022 8 248 19.3 33.8 0.00 0.00 0.00 41 1010.1
20260505204522 8 308 19.3 30.6 0.00 0.00 0.00 40 1010.1
20260505203120 8 310 20.9 33.8 0.00 0.00 0.00 41 1010.2
20260505201519 7 249 16.1 32.2 0.00 0.00 0.00 43 1010.2
20260505200017 8 282 11.3 32.2 0.00 0.00 0.00 42 1010.3
20260505194516 7 296 16.1 30.6 0.00 0.00 0.00 45 1010.3
20260505193015 7 252 14.5 30.6 0.00 0.00 0.00 43 1010.2
20260505191514 7 261 16.1 29.0 0.00 0.00 0.00 43 1010.3
20260505190024 7 306 11.3 24.1 0.00 0.00 0.00 43 1010.3
20260505184514 7 273 17.7 32.2 0.00 0.00 0.00 43 1010.3
20260505183013 7 291 16.1 37.0 0.00 0.00 0.00 43 1010.3
20260505181512 7 309 20.9 35.4 0.00 0.00 0.00 44 1010.3
20260505180010 7 236 14.5 24.1 0.00 0.00 0.00 44 1010.2
20260505174508 6 279 19.3 30.6 0.00 0.00 0.00 43 1010.3
20260505173008 6 288 17.7 30.6 0.00 0.00 0.00 45 1010.4
20260505171508 6 323 12.9 33.8 0.00 0.00 0.00 46 1010.3
20260505170014 6 309 14.5 30.6 0.00 0.00 0.00 46 1010.4
20260505164506 6 315 19.3 33.8 0.00 0.00 0.00 48 1010.2
20260505163009 6 260 16.1 35.4 0.00 0.00 0.00 47 1010.2
20260505161502 6 320 14.5 33.8 0.00 0.00 0.00 49 1010.2
20260505153056 5 332 20.9 30.6 0.00 0.00 0.00 53 1010.0
20260505151611 4 298 14.5 33.8 0.00 0.00 0.00 52 1010.0